KC1OHT-13 Weather Reports


time (UTC)temp
C
wind
direction
speed
KPH
gust
KPH
rain 1hr
cm
rain 24hr
cm
rain mn
cm
humidity
%
barometer
mb
20260507223906 16 264 6.4 11.3 0.00 0.38 0.38 30 1004.1
20260507223402 16 292 3.2 3.2 0.00 0.38 0.38 30 1004.0
20260507222900 16 337 4.8 4.8 0.00 0.38 0.38 30 1004.1
20260507222356 17 29 3.2 4.8 0.00 0.38 0.38 30 1004.0
20260507221853 17 297 3.2 4.8 0.00 0.38 0.38 29 1004.0
20260507221349 17 341 3.2 4.8 0.00 0.38 0.38 29 1003.9
20260507220845 17 308 3.2 4.8 0.00 0.38 0.38 29 1003.8
20260507220344 17 345 1.6 3.2 0.00 0.38 0.38 30 1003.7
20260507215840 17 199 3.2 3.2 0.00 0.38 0.38 30 1003.6
20260507215337 17 295 4.8 6.4 0.00 0.38 0.38 30 1003.8
20260507214834 18 291 4.8 4.8 0.00 0.38 0.38 29 1003.4
20260507214331 17 79 1.6 1.6 0.00 0.38 0.38 30 1003.4
20260507213826 18 320 4.8 4.8 0.00 0.38 0.38 29 1003.3
20260507213324 18 214 4.8 6.4 0.00 0.38 0.38 29 1003.3
20260507212820 18 357 1.6 3.2 0.00 0.38 0.38 30 1003.3
20260507212316 18 53 1.6 3.2 0.00 0.38 0.38 29 1003.3
20260507211813 18 334 4.8 4.8 0.00 0.38 0.38 29 1003.3
20260507211310 18 250 3.2 4.8 0.00 0.38 0.38 29 1003.2
20260507210806 18 329 3.2 4.8 0.00 0.38 0.38 29 1003.4
20260507210303 19 205 3.2 4.8 0.00 0.38 0.38 29 1003.3
20260507205759 18 319 4.8 6.4 0.00 0.38 0.38 28 1003.3
20260507205257 18 301 3.2 4.8 0.00 0.38 0.38 28 1003.3
20260507204753 18 226 6.4 6.4 0.00 0.38 0.38 29 1003.2
20260507204251 18 183 12.9 17.7 0.00 0.38 0.38 28 1003.4
20260507203748 18 287 3.2 4.8 0.00 0.38 0.38 28 1003.3
20260507203246 19 326 3.2 6.4 0.00 0.38 0.38 28 1003.2
20260507202742 19 327 4.8 6.4 0.00 0.38 0.38 28 1003.3
20260507202238 18 4 3.2 4.8 0.00 0.38 0.38 28 1003.2
20260507201733 18 315 3.2 3.2 0.00 0.38 0.38 27 1003.2
20260507201230 18 306 6.4 9.7 0.00 0.38 0.38 28 1003.1
20260507200726 19 190 6.4 6.4 0.00 0.38 0.38 27 1003.0
20260507200222 18 97 3.2 4.8 0.00 0.38 0.38 28 1003.1
20260507195718 18 179 6.4 6.4 0.00 0.38 0.38 28 1003.4
20260507195210 19 103 4.8 6.4 0.00 0.38 0.38 27 1003.3
20260507194707 19 195 3.2 4.8 0.00 0.38 0.38 28 1003.5
20260507194203 18 87 3.2 3.2 0.00 0.38 0.38 28 1003.4
20260507193700 19 289 3.2 4.8 0.00 0.38 0.38 27 1003.3
20260507193157 19 309 3.2 4.8 0.00 0.38 0.38 27 1003.4
20260507192652 19 357 4.8 9.7 0.00 0.38 0.38 27 1003.4
20260507192150 19 279 3.2 4.8 0.00 0.38 0.38 27 1003.6
20260507191645 20 291 3.2 4.8 0.00 0.38 0.38 27 1003.6
20260507191143 19 264 1.6 3.2 0.00 0.38 0.38 28 1003.3
20260507190640 19 307 4.8 6.4 0.00 0.38 0.38 27 1003.4
20260507190139 19 322 3.2 4.8 0.00 0.38 0.38 28 1003.7
20260507185636 19 216 6.4 9.7 0.00 0.38 0.38 27 1003.6
20260507185132 19 68 1.6 3.2 0.00 0.38 0.38 28 1003.6
20260507184631 18 117 3.2 3.2 0.00 0.38 0.38 29 1003.7
20260507184129 19 334 1.6 1.6 0.00 0.38 0.38 28 1003.7
20260507183624 20 168 3.2 3.2 0.00 0.38 0.38 28 1003.6
20260507183121 18 195 1.6 3.2 0.00 0.38 0.38 30 1003.8
20260507182618 19 224 4.8 4.8 0.00 0.38 0.38 30 1003.8
20260507182114 18 39 3.2 4.8 0.00 0.38 0.38 32 1003.8
20260507181611 18 328 8.0 12.9 0.00 0.38 0.38 31 1003.9
20260507181107 18 239 4.8 6.4 0.00 0.38 0.38 31 1004.1
20260507180603 18 245 9.7 12.9 0.00 0.38 0.38 32 1004.1
20260507180101 18 190 6.4 9.7 0.00 0.38 0.38 33 1004.0
20260507175557 18 259 8.0 11.3 0.00 0.38 0.38 35 1004.0
20260507175054 18 229 6.4 11.3 0.00 0.38 0.38 36 1004.0
20260507174551 18 44 1.6 1.6 0.00 0.38 0.38 36 1003.9
20260507174049 18 35 1.6 3.2 0.00 0.38 0.38 38 1003.9
20260507173546 18 287 4.8 4.8 0.00 0.38 0.38 40 1004.0
20260507173043 18 282 8.0 11.3 0.00 0.38 0.38 40 1004.0
20260507172539 18 85 0.0 1.6 0.00 0.38 0.38 43 1003.9
20260507172036 17 238 8.0 11.3 0.00 0.38 0.38 42 1004.1
20260507171531 18 331 3.2 4.8 0.00 0.38 0.38 41 1004.0
20260507171029 17 273 3.2 4.8 0.00 0.38 0.38 43 1004.2
20260507170525 17 309 9.7 14.5 0.00 0.38 0.38 45 1004.2
20260507170022 17 343 4.8 6.4 0.00 0.38 0.38 46 1004.2
20260507165518 17 317 3.2 4.8 0.00 0.38 0.38 46 1004.2
20260507165015 17 260 4.8 6.4 0.00 0.38 0.38 46 1004.2
20260507164511 18 304 4.8 9.7 0.00 0.38 0.38 45 1004.2
20260507164008 17 336 8.0 11.3 0.00 0.38 0.38 47 1004.4
20260507163505 17 150 6.4 9.7 0.00 0.38 0.38 48 1004.5
20260507163003 17 183 3.2 4.8 0.00 0.38 0.38 48 1004.5
20260507162457 18 175 6.4 6.4 0.00 0.38 0.38 46 1004.6
20260507161955 18 172 4.8 4.8 0.00 0.38 0.38 43 1004.4
20260507161451 17 18 1.6 3.2 0.00 0.38 0.38 46 1004.7
20260507160948 16 53 1.6 1.6 0.00 0.38 0.38 50 1004.8
20260507160444 16 324 4.8 6.4 0.00 0.38 0.38 48 1004.9
20260507155939 16 305 4.8 6.4 0.00 0.38 0.38 50 1004.8
20260507155436 16 329 3.2 4.8 0.00 0.38 0.38 49 1004.8
20260507154933 17 73 1.6 3.2 0.00 0.38 0.38 46 1005.1
20260507154429 16 350 1.6 1.6 0.00 0.38 0.38 49 1005.1
20260507153927 17 175 3.2 4.8 0.00 0.38 0.38 47 1005.2
20260507153423 16 268 4.8 4.8 0.00 0.38 0.38 49 1005.0
20260507152920 16 204 4.8 4.8 0.00 0.38 0.38 48 1005.0
20260507152416 17 266 1.6 3.2 0.00 0.38 0.38 47 1004.9
20260507151912 17 289 3.2 3.2 0.00 0.38 0.38 47 1005.3
20260507151409 17 45 0.0 1.6 0.00 0.38 0.38 45 1005.2
20260507150906 17 335 4.8 6.4 0.00 0.38 0.38 44 1005.3
20260507150403 16 263 3.2 3.2 0.00 0.38 0.38 46 1005.3
20260507145859 16 289 6.4 9.7 0.00 0.38 0.38 45 1005.4
20260507145355 16 16 3.2 3.2 0.00 0.38 0.38 47 1005.4
20260507144852 17 284 3.2 4.8 0.00 0.38 0.38 45 1005.5
20260507144349 16 72 1.6 1.6 0.00 0.38 0.38 45 1005.5
20260507143846 16 203 9.7 12.9 0.00 0.38 0.38 47 1005.5
20260507143343 16 55 0.0 0.0 0.00 0.38 0.38 51 1005.5
20260507142839 16 57 3.2 3.2 0.00 0.38 0.38 51 1005.7
20260507142336 16 51 3.2 4.8 0.00 0.38 0.38 51 1005.7
20260507141832 15 280 1.6 3.2 0.00 0.38 0.38 52 1005.7
20260507141329 15 353 1.6 4.8 0.00 0.38 0.38 52 1005.4
20260507140826 15 62 3.2 4.8 0.00 0.38 0.38 52 1005.7
20260507140322 15 30 0.0 0.0 0.00 0.38 0.38 52 1005.7
20260507135821 15 81 3.2 3.2 0.00 0.38 0.38 55 1005.7
20260507135317 15 251 4.8 4.8 0.00 0.38 0.38 54 1005.6
20260507134814 14 51 4.8 9.7 0.00 0.38 0.38 55 1005.7
20260507134310 15 153 3.2 3.2 0.00 0.38 0.38 54 1005.6
20260507133806 14 283 3.2 3.2 0.00 0.38 0.38 58 1005.8
20260507133302 13 328 3.2 4.8 0.00 0.38 0.38 60 1005.7
20260507132801 14 305 4.8 6.4 0.00 0.38 0.38 62 1005.9
20260507132257 13 207 1.6 3.2 0.00 0.38 0.38 62 1006.0
20260507131754 13 296 6.4 6.4 0.00 0.38 0.38 63 1006.1
20260507131251 13 295 4.8 6.4 0.00 0.38 0.38 68 1006.1
20260507130747 13 330 3.2 3.2 0.00 0.38 0.38 68 1006.2
20260507130245 13 84 3.2 6.4 0.00 0.38 0.38 69 1006.2
20260507125744 12 236 3.2 3.2 0.00 0.38 0.38 72 1006.4
20260507125241 12 6 1.6 3.2 0.00 0.38 0.38 75 1006.4
20260507124738 12 261 3.2 3.2 0.00 0.38 0.38 77 1006.5
20260507124234 11 8 3.2 3.2 0.00 0.38 0.38 79 1006.3
20260507123733 11 206 1.6 3.2 0.00 0.38 0.38 82 1006.1
20260507123230 11 285 3.2 3.2 0.00 0.38 0.38 84 1006.2
20260507122725 10 63 1.6 1.6 0.00 0.38 0.38 85 1005.9
20260507122221 10 309 1.6 3.2 0.00 0.38 0.38 85 1005.8
20260507121717 10 246 1.6 3.2 0.00 0.38 0.38 87 1006.0
20260507121213 10 208 3.2 4.8 0.00 0.38 0.38 88 1005.7
20260507120709 10 284 3.2 4.8 0.00 0.38 0.38 89 1005.9
20260507120207 10 302 3.2 3.2 0.00 0.38 0.38 90 1005.8
20260507115703 10 338 1.6 3.2 0.00 0.38 0.38 91 1005.9
20260507115158 9 358 0.0 1.6 0.00 0.38 0.38 91 1005.7
20260507114654 9 47 1.6 1.6 0.00 0.38 0.38 92 1006.1
20260507114152 9 355 0.0 1.6 0.00 0.38 0.38 92 1005.7
20260507113649 9 349 4.8 4.8 0.00 0.38 0.38 92 1005.6
20260507113146 9 357 0.0 0.0 0.00 0.38 0.38 93 1005.6
20260507112644 9 19 0.0 1.6 0.00 0.38 0.38 93 1005.5
20260507112140 9 271 1.6 1.6 0.00 0.38 0.38 93 1005.6
20260507111638 9 345 1.6 1.6 0.00 0.38 0.38 93 1005.5
20260507111134 9 358 0.0 1.6 0.00 0.38 0.38 94 1005.6
20260507110630 9 359 0.0 0.0 0.00 0.38 0.38 94 1005.3
20260507110127 9 338 3.2 3.2 0.00 0.38 0.38 94 1005.7
20260507105624 9 358 0.0 0.0 0.00 0.38 0.38 94 1005.5
20260507105120 9 358 0.0 0.0 0.00 0.38 0.38 94 1005.9
20260507104617 9 0 0.0 0.0 0.00 0.38 0.38 94 1005.8
20260507104114 9 3 0.0 0.0 0.00 0.38 0.38 94 1005.9
20260507103610 9 359 1.6 1.6 0.00 0.38 0.38 94 1005.9
20260507103107 9 8 0.0 0.0 0.00 0.38 0.38 94 1005.2
20260507102603 9 8 1.6 1.6 0.00 0.38 0.38 94 1005.3
20260507102059 9 10 0.0 0.0 0.13 0.38 0.38 94 1005.5
20260507101555 9 17 0.0 0.0 0.13 0.38 0.38 94 1005.7
20260507101051 9 0 0.0 0.0 0.00 0.36 0.36 94 1005.6
20260507100549 9 1 0.0 0.0 0.18 0.36 0.36 94 1005.3
20260507100047 9 4 0.0 0.0 0.30 0.36 0.36 94 1005.1
20260507095544 9 284 3.2 4.8 0.48 0.36 0.36 93 1005.1
20260507095041 9 7 1.6 1.6 0.48 0.33 0.33 94 1005.2
20260507094537 10 341 1.6 1.6 0.30 0.28 0.28 94 1005.3
20260507094034 10 78 0.0 1.6 0.13 0.25 0.25 93 1005.1
20260507093532 10 336 1.6 1.6 0.00 0.23 0.23 93 1005.1
20260507093030 10 43 1.6 1.6 0.18 0.23 0.23 93 1004.9
20260507092526 10 345 1.6 3.2 0.48 0.23 0.23 93 1005.1
20260507092023 10 303 1.6 3.2 0.43 0.20 0.20 93 1005.0
20260507091520 10 12 1.6 1.6 0.30 0.15 0.15 93 1005.2
20260507091016 10 323 3.2 3.2 0.18 0.13 0.13 92 1005.2
20260507090512 10 349 0.0 1.6 0.30 0.13 0.13 92 1005.4
20260507090009 10 233 1.6 3.2 0.13 0.10 0.10 93 1005.2
20260507085506 10 208 3.2 4.8 0.00 0.08 0.08 93 1005.2
20260507085002 11 355 1.6 1.6 0.00 0.08 0.08 93 1005.5
20260507084459 11 305 6.4 6.4 0.18 0.08 0.08 92 1005.1
20260507083956 11 0 1.6 1.6 0.18 0.08 0.08 92 1004.9
20260507083452 11 3 0.0 1.6 0.00 0.05 0.05 91 1004.9
20260507082949 11 10 0.0 1.6 0.13 0.05 0.05 91 1004.9
20260507082445 11 0 1.6 1.6 0.13 0.05 0.05 90 1004.8
20260507081941 11 39 0.0 1.6 0.00 0.03 0.03 90 1004.6
20260507081438 11 7 0.0 0.0 0.00 0.03 0.03 89 1005.0
20260507080935 11 200 4.8 4.8 0.00 0.03 0.03 88 1005.2
20260507080425 11 343 1.6 1.6 0.00 0.03 0.03 88 1004.9
20260507075920 11 181 3.2 3.2 0.00 0.03 0.03 87 1004.7
20260507075416 11 4 1.6 1.6 0.00 0.03 0.03 87 1004.6
20260507074908 12 254 4.8 9.7 0.00 0.03 0.03 86 1004.8
20260507074405 12 343 1.6 1.6 0.00 0.03 0.03 84 1004.7
20260507073903 12 229 1.6 3.2 0.00 0.03 0.03 84 1004.6
20260507073359 12 358 1.6 1.6 0.00 0.03 0.03 84 1004.2
20260507072856 12 293 4.8 6.4 0.00 0.03 0.03 84 1004.2
20260507072353 12 6 0.0 1.6 0.00 0.03 0.03 85 1004.2
20260507071851 12 279 1.6 1.6 0.00 0.03 0.03 86 1004.1
20260507071348 12 283 6.4 9.7 0.00 0.03 0.03 86 1004.2
20260507070843 12 306 3.2 3.2 0.00 0.03 0.03 86 1004.3
20260507070341 12 1 1.6 3.2 0.00 0.03 0.03 86 1004.0
20260507065838 12 333 1.6 1.6 0.00 0.03 0.03 86 1004.5
20260507065335 12 219 3.2 3.2 0.00 0.03 0.03 86 1004.1
20260507064832 12 329 3.2 4.8 0.00 0.03 0.03 85 1004.2
20260507064330 12 294 3.2 4.8 0.00 0.03 0.03 84 1004.1
20260507063828 12 297 3.2 3.2 0.00 0.03 0.03 84 1004.1
20260507063324 12 309 3.2 4.8 0.00 0.03 0.03 84 1004.2
20260507062821 12 309 4.8 6.4 0.00 0.03 0.03 86 1004.2
20260507062318 13 181 1.6 3.2 0.00 0.03 0.03 89 1003.9
20260507061816 13 18 0.0 0.0 0.00 0.03 0.03 89 1003.8
20260507061314 13 49 1.6 1.6 0.00 0.03 0.03 90 1004.0
20260507060812 13 329 3.2 4.8 0.00 0.03 0.03 91 1004.2
20260507060308 13 358 0.0 1.6 0.00 0.03 0.03 91 1004.0
20260507055805 13 307 1.6 3.2 0.00 0.03 0.03 91 1004.1
20260507055300 13 340 1.6 3.2 0.00 0.03 0.03 91 1004.3
20260507054757 13 0 1.6 1.6 0.00 0.03 0.03 91 1004.6
20260507054253 13 208 4.8 6.4 0.00 0.03 0.03 91 1004.5
20260507053751 13 315 1.6 1.6 0.00 0.03 0.03 91 1004.5
20260507053248 13 333 1.6 3.2 0.00 0.03 0.03 91 1004.3
20260507052747 13 350 1.6 1.6 0.00 0.03 0.03 91 1004.1
20260507052243 13 348 1.6 3.2 0.00 0.03 0.03 90 1004.1
20260507051741 13 204 3.2 9.7 0.00 0.03 0.03 91 1004.2
20260507051238 13 18 3.2 3.2 0.00 0.03 0.03 92 1004.1
20260507050734 13 333 1.6 1.6 0.00 0.03 0.03 93 1004.2
20260507050232 14 0 1.6 1.6 0.00 0.03 0.03 94 1004.2
20260507045728 14 344 4.8 9.7 0.00 0.03 0.03 95 1004.1
20260507045224 15 243 6.4 9.7 0.00 0.03 0.03 96 1003.9
20260507044722 15 345 1.6 3.2 0.00 0.03 0.03 97 1003.9
20260507044218 15 1 1.6 3.2 0.00 0.03 0.03 97 1003.6
20260507043714 15 344 6.4 9.7 0.00 0.03 0.03 97 1003.9
20260507043211 15 337 1.6 1.6 0.00 0.03 0.03 97 1003.9
20260507042708 15 2 1.6 1.6 0.00 0.03 0.03 97 1003.8
20260507042203 15 354 1.6 1.6 0.18 0.03 0.03 97 1004.0
20260507041701 15 349 1.6 1.6 0.18 0.03 0.03 97 1004.0
20260507041156 15 355 1.6 1.6 0.00 0.00 0.00 97 1004.2
20260507040654 15 330 1.6 1.6 0.00 0.00 0.00 97 1004.1
20260507040150 15 329 1.6 1.6 0.00 0.00 0.00 96 1004.3
20260507035646 15 334 3.2 4.8 0.00 0.10 0.10 96 1004.1
20260507035142 15 239 3.2 3.2 0.00 0.10 0.10 96 1004.1
20260507034639 15 8 1.6 1.6 0.00 0.10 0.10 96 1003.9
20260507034137 15 7 1.6 1.6 0.00 0.10 0.10 95 1004.1
20260507033635 15 5 0.0 1.6 0.00 0.10 0.10 95 1003.8
20260507033132 15 331 6.4 6.4 0.00 0.10 0.10 95 1003.9
20260507032629 15 270 3.2 4.8 0.00 0.10 0.10 95 1003.7
20260507032124 15 211 3.2 4.8 0.00 0.10 0.10 95 1003.7
20260507031621 15 321 4.8 9.7 0.00 0.10 0.10 95 1003.6
20260507031113 15 9 1.6 1.6 0.00 0.10 0.10 95 1003.6
20260507030609 15 336 4.8 6.4 0.00 0.10 0.10 95 1003.4
20260507030107 15 324 3.2 4.8 0.00 0.10 0.10 95 1003.4
20260507025604 15 25 0.0 0.0 0.00 0.10 0.10 96 1003.3
20260507025100 15 345 1.6 1.6 0.00 0.10 0.10 96 1003.6
20260507024558 14 313 1.6 3.2 0.00 0.10 0.10 96 1003.7
20260507024050 14 112 1.6 3.2 0.00 0.10 0.10 96 1003.7
20260507023545 14 15 0.0 1.6 0.00 0.10 0.10 96 1003.6
20260507023043 14 18 1.6 1.6 0.00 0.10 0.10 96 1003.7
20260507022540 14 16 0.0 1.6 0.00 0.10 0.10 96 1003.7
20260507022035 14 2 3.2 3.2 0.00 0.10 0.10 96 1003.8
20260507021531 14 38 3.2 3.2 0.00 0.10 0.10 96 1004.0
20260507021028 14 302 1.6 4.8 0.00 0.10 0.10 96 1003.7
20260507020526 14 244 1.6 3.2 0.00 0.10 0.10 96 1003.6
20260507020022 14 27 0.0 1.6 0.00 0.10 0.10 95 1003.6
20260507015521 14 32 1.6 1.6 0.00 0.10 0.10 96 1003.8
20260507015018 14 321 1.6 3.2 0.00 0.10 0.10 96 1004.1
20260507014514 14 23 3.2 4.8 0.00 0.10 0.10 96 1003.8
20260507014010 14 61 1.6 3.2 0.00 0.10 0.10 96 1003.8
20260507013507 14 14 1.6 1.6 0.00 0.10 0.10 95 1003.8
20260507013004 14 25 0.0 1.6 0.00 0.10 0.10 96 1004.0
20260507012501 14 57 1.6 1.6 0.00 0.10 0.10 95 1004.1
20260507011957 13 349 1.6 1.6 0.00 0.10 0.10 96 1004.0
20260507011455 13 329 4.8 4.8 0.00 0.10 0.10 95 1004.1
20260507010950 13 73 1.6 1.6 0.00 0.10 0.10 96 1004.1
20260507010445 13 57 1.6 1.6 0.00 0.10 0.10 96 1004.1
20260507005942 13 24 0.0 0.0 0.00 0.10 0.10 96 1004.2
20260507005439 13 252 1.6 3.2 0.00 0.10 0.10 96 1004.0
20260507004936 13 298 1.6 3.2 0.00 0.10 0.10 96 1004.1
20260507004432 13 29 3.2 3.2 0.00 0.10 0.10 96 1004.1
20260507003930 13 40 1.6 3.2 0.00 0.10 0.10 96 1004.3
20260507003425 13 249 1.6 3.2 0.00 0.10 0.10 96 1004.2
20260507002920 13 142 4.8 6.4 0.00 0.10 0.10 96 1004.0
20260507002417 13 197 4.8 4.8 0.00 0.10 0.10 96 1004.2
20260507001914 13 237 4.8 6.4 0.00 0.10 0.10 96 1004.1
20260507001411 13 309 3.2 4.8 0.00 0.10 0.10 96 1003.8
20260507000908 13 114 3.2 4.8 0.18 0.10 0.10 96 1003.9
20260507000405 13 193 6.4 6.4 0.18 0.10 0.10 96 1003.8
20260506235859 13 172 6.4 6.4 0.00 0.08 0.08 96 1004.0
20260506235357 13 200 4.8 4.8 0.00 0.08 0.08 96 1004.1
20260506234852 13 142 3.2 9.7 0.13 0.08 0.08 96 1004.0
20260506234350 13 130 3.2 3.2 0.13 0.08 0.08 96 1004.0
20260506233848 13 53 3.2 3.2 0.00 0.05 0.05 96 1004.0
20260506233343 13 174 4.8 6.4 0.00 0.05 0.05 96 1003.9
20260506232841 13 7 1.6 3.2 0.00 0.05 0.05 96 1003.9
20260506232337 13 145 6.4 6.4 0.00 0.05 0.05 96 1003.9
20260506231833 13 57 3.2 4.8 0.00 0.05 0.05 96 1004.0
20260506231331 13 135 8.0 11.3 0.00 0.05 0.05 95 1004.1
20260506230828 13 204 6.4 12.9 0.00 0.05 0.05 96 1003.9
20260506230325 13 148 3.2 4.8 0.00 0.05 0.05 96 1004.0
20260506225821 13 236 6.4 9.7 0.00 0.05 0.05 96 1004.0
20260506225318 13 196 4.8 6.4 0.00 0.05 0.05 96 1004.0
20260506224815 13 182 8.0 9.7 0.18 0.05 0.05 95 1004.2
20260506224312 13 114 4.8 9.7 0.18 0.05 0.05 95 1004.1